Retour au catalogue

STARLINK-37445

ActifCommunicationsVLEO
NORAD 69165·PAYLOAD·🇺🇸 United States

Lancé May 21, 2026 depuis Cape Canaveral Space Force Station

Loading…

Prochains Passages (prochaines 24 heures)

TLE

FraisSource: CelesTrak SupGP

Époque: Sep 14, 2026, 22:55 UTC

1 69165C 26111T   26257.95534722  .00046157  00000+0  13642-2 0  2574
2 69165  53.1579  91.6013 0001254  88.5015  74.2375 15.34357038    16

Suivez STARLINK-37445 en temps réel avec AllMySat

Download on the App Store